sat.trackr.live / text

‹ back to catalog

STARLINK-1577

NORAD 46063 · 2020-055AN

PAYLOAD ACTIVE UNKNOWN

§ Identity

Operator
Country
US
Launch date
2020-08-07
Launch site
AFETR
Launch vehicle
Mass (kg)
RCS (m²)

Purposes: comms

External: N2YO · Heavens-Above · Gunter

§ Orbital elements

Epoch: 2026-09-15T04:20:30.204960Z

Period
94.01 min
Inclination
53.1578°
Eccentricity
0.0001190
Mean motion
15.31714656 rev/d
Perigee alt
469.9 km
Apogee alt
471.5 km
Semi-major
6,848.8 km
B*
4.9540e-5
RAAN
312.0256°
Arg perigee
81.0330°
Mean anomaly
279.0806°
Rev number
33,810

§ Raw data

STARLINK-15771 46063U 20055AN  26258.18090515  .00001173  00000+0  49540-4 0  99902 46063  53.1578 312.0256 0001190  81.0330 279.0806 15.31714656338101

JSON: /api/v1/satellites/46063 · /tle

For live sub-satellite position, see the globe view (requires WebGL).

§ Visibility from observer

Set your observer location to see the next 7 days of passes ≥ 10°. The values pass through the URL so the page stays shareable.

No JS? Fill the form by hand. The geolocation button needs JavaScript.